[[{"header":{"parameterUnit":"m.s-1","parameterCategory":2,"la1":30.2991,"la2":30.254,"lo1":-89.0895,"lo2":-89.0444,"dy":0.0017,"dx":0.0017,"nx":28,"ny":28,"refTime":"2024-02-04T03:00:00:Z","depth":"0","parameterNumber":2,"parameterNumberName":"U-component_of_CURRENTS"},"data":[0,0,0,0,0,0,0,0,0,0,0,0,0,0,0,0,0,0,0,0,0,0,0,0,0,0,0,0,0,0,0,0,0,0,0,0,0,0,0,0,0,0,0,0,0,0,0,0,0,0,0,0,0,0,0,0,0,0,0.3331,0.3332,0,0.335,0.335,0.335,0.3333,0.3333,0.3332,0.3332,0.3312,0.3312,0.3312,0,0,0,0,0,0,0,0,0,0,0,0,0,0.3283,0.3284,0.3331,0.3332,0.3332,0.335,0.335,0.335,0.3333,0.3333,0.3332,0.3332,0.3312,0.3312,0.3312,0,0,0,0,0,0,0,0,0,0,0,0,0,0.3301,0.3284,0.3331,0.3328,0.3328,0.335,0.335,0.335,0.3333,0.3333,0.3332,0.3331,0.3312,0.3312,0.3312,0.3324,0,0,0.3311,0.3311,0,0,0,0,0,0,0,0,0.33,0.3302,0.3328,0.3328,0.3328,0.3341,0.3326,0.334,0.3333,0.3329,0.3332,0.3331,0.332,0.3319,0.3321,0.3324,0.3323,0.3311,0.3311,0.3311,0.3311,0,0,0,0,0,0,0,0.3299,0.3301,0.3336,0.3328,0.3329,0.3326,0.3328,0.3329,0.3325,0.3329,0.3328,0.3335,0.3319,0.3321,0.3321,0.3322,0.3311,0.3311,0.3311,0.3311,0.3373,0.3375,0,0,0,0,0,0,0.3302,0.33,0.3335,0.3337,0.3315,0.3328,0.3329,0.3335,0.3326,0.3325,0.3335,0.3334,0.3322,0.3321,0.332,0.3363,0.3311,0.3311,0.3311,0.3371,0.3374,0.3375,0,0,0,0,0,0,0.3301,0.3305,0.3335,0.3321,0.3325,0.333,0.3336,0.3336,0.3345,0.3332,0.3329,0.3345,0.3321,0.332,0.3335,0.3361,0.3311,0.3311,0.3369,0.3372,0.3375,0.3432,0,0,0,0,0,0,0.33,0.3305,0.331,0.3321,0.3326,0.3358,0.3337,0.3337,0.3351,0.3349,0.334,0.3336,0.3321,0.3336,0.3335,0.336,0.331,0.3367,0.3371,0.3374,0.3428,0.3436,0.3443,0,0,0,0,0,0.3298,0.3308,0.331,0.3314,0.3333,0.3359,0.3361,0.336,0.3352,0.3364,0.336,0.3337,0.3356,0.3337,0.3336,0.3361,0.3366,0.337,0.3373,0.3424,0.3434,0.3443,0,0,0,0,0,0,0.3286,0.3308,0.331,0.3325,0.3346,0.3357,0.3368,0.337,0.3376,0.3374,0.3356,0.3354,0.3382,0.3366,0.3346,0.3392,0.3359,0.3363,0.3398,0.3407,0.3415,0.3439,0.331,0,0,0,0,0,0.3288,0.3303,0.3325,0.3338,0.3351,0.3362,0.3372,0.3377,0.3385,0.3387,0.3381,0.3382,0.3398,0.3397,0.3406,0.3424,0.3435,0.3442,0.345,0.3457,0.3478,0.3515,0.3528,0.3388,0.3388,0.3388,0,0,0.3285,0.3302,0.3308,0.3338,0.3351,0.3379,0.3366,0.339,0.3419,0.3385,0.3413,0.3411,0.3412,0.3439,0.3449,0.3426,0.3504,0.3462,0.3467,0.3485,0.352,0.3534,0.3546,0.3391,0.3391,0.339,0,0,0.3292,0.3306,0.3322,0.3347,0.3379,0.3394,0.3406,0.3426,0.3442,0.3465,0.3462,0.3481,0.348,0.35,0.3507,0.3565,0.355,0.3561,0.361,0.3645,0.3657,0.3667,0.3705,0.3718,0.3556,0.3556,0.3556,0,0.3288,0.331,0.3331,0.3361,0.3382,0.3405,0.3431,0.3462,0.3485,0.3502,0.3479,0.3518,0.3515,0.3572,0.3595,0.3583,0.3599,0.357,0.3655,0.3666,0.3676,0.3712,0.3725,0.356,0.3559,0.3559,0.3559,0,0.3309,0.3332,0.3348,0.3392,0.3421,0.345,0.3496,0.3527,0.3536,0.3555,0.3604,0.3609,0.3629,0.3637,0.3631,0.3708,0.3697,0.3666,0.3629,0.3693,0.3727,0.374,0.3564,0.3563,0.3562,0.3561,0,0,0.3283,0.3347,0.3352,0.3375,0.3439,0.3463,0.3527,0.3581,0.3624,0.3644,0.3691,0.3729,0.373,0.3742,0.3747,0.3782,0.3864,0.3757,0.3757,0.3792,0.395,0.3939,0.3952,0.3842,0.3844,0.3846,0.3948,0,0.3289,0.3336,0.3373,0.3424,0.345,0.3503,0.3563,0.362,0.3659,0.3714,0.3746,0.3793,0.3774,0.379,0.3827,0.3864,0.3902,0.3841,0.3887,0.3889,0.3869,0.3969,0.3905,0.399,0.3961,0.3963,0.3964,0,0.3293,0.3325,0.3368,0.3439,0.3457,0.3497,0.3584,0.3639,0.3735,0.3769,0.3821,0.3852,0.3938,0.3894,0.3995,0.3955,0.3967,0.3982,0.3985,0.3968,0.3904,0.3922,0.4016,0.3981,0.3985,0.3983,0.3982,0,0.3252,0.332,0.3349,0.3374,0.3464,0.3496,0.3544,0.3642,0.3705,0.3809,0.3865,0.3945,0.4005,0.4037,0.4082,0.4043,0.4179,0.4117,0.4121,0.4119,0.4074,0.4065,0.4139,0.4184,0.4184,0.4184,0.4183,0,0.3239,0.3264,0.3331,0.3349,0.3396,0.3467,0.3534,0.3603,0.3719,0.38,0.3888,0.3976,0.4046,0.4127,0.4128,0.4191,0.4216,0.417,0.416,0.4092,0.4084,0.4056,0.4016,0.4187,0.4186,0.4186,0.4185,0,0.319,0.3234,0.3273,0.3354,0.3376,0.3407,0.3517,0.357,0.3699,0.3813,0.3858,0.4032,0.415,0.4212,0.429,0.4268,0.4216,0.4307,0.4233,0.4212,0.416,0.4125,0.3991,0.3854,0.4335,0.4335,0.4336,0,0.3168,0.3182,0.3254,0.3269,0.3301,0.3358,0.34,0.3533,0.3604,0.3838,0.3892,0.4078,0.4194,0.4337,0.4349,0.4386,0.4243,0.4322,0.4235,0.4192,0.4145,0.3933,0.3809,0.42,0.4199,0.4199,0.4199,0,0.3122,0.315,0.3177,0.3209,0.3243,0.3284,0.3361,0.3422,0.3592,0.3723,0.3897,0.4022,0.4225,0.4276,0.4363,0.4359,0.4162,0.4311,0.4287,0.4085,0.3839,0.3689,0.41,0.4194,0.4194,0.4194,0.4195,0.4195,0.308,0.3082,0.3115,0.3137,0.3166,0.3188,0.3194,0.3305,0.3416,0.3585,0.3782,0.3944,0.4168,0.4305,0.4259,0.4242,0.4127,0.4178,0.4154,0.3953,0.3773,0.4185,0.4245,0.4246,0.4246,0.4247,0.4247,0,0.3008,0.3017,0.3037,0.3046,0.3029,0.3085,0.3144,0.314,0.3211,0.3441,0.3584,0.3868,0.3989,0.4115,0.4239,0.4147,0.3876,0.4054,0.3769,0.366,0.4088,0.404,0.4033,0.4033,0.4033,0.4033,0.4033,0.4033,0.2971,0.2949,0.2955,0.2899,0.2902,0.2845,0.285,0.2877,0.2999,0.3179,0.3366,0.3572,0.3971,0.4236,0.4237,0.411,0.3789,0.365,0.3551,0.3941,0.395,0.3958,0.3907,0.3872,0.3872,0.2986,0.298,0.2975]},{"header":{"parameterUnit":"m.s-1","parameterCategory":2,"la1":30.2991,"la2":30.254,"lo1":-89.0895,"lo2":-89.0444,"dy":0.0017,"dx":0.0017,"nx":28,"ny":28,"refTime":"2024-02-04T03:00:00:Z","depth":"0","parameterNumber":3,"parameterNumberName":"V-component_of_CURRENTS"},"data":[0,0,0,0,0,0,0,0,0,0,0,0,0,0,0,0,0,0,0,0,0,0,0,0,0,0,0,0,0,0,0,0,0,0,0,0,0,0,0,0,0,0,0,0,0,0,0,0,0,0,0,0,0,0,0,0,0,0,0.0056,0.0055,0,-0.0006,-0.0007,-0.0008,-0.0054,-0.0054,-0.0054,-0.0054,-0.0141,-0.0143,-0.0145,0,0,0,0,0,0,0,0,0,0,0,0,0,0.0067,0.0067,0.0056,0.0055,0.0055,-0.0006,-0.0007,-0.0008,-0.0054,-0.0054,-0.0054,-0.0055,-0.014,-0.0143,-0.0145,0,0,0,0,0,0,0,0,0,0,0,0,0,0.0038,0.0067,0.0056,0.0026,0.0022,-0.0006,-0.0007,-0.0008,-0.0054,-0.0054,-0.0054,-0.0055,-0.014,-0.0143,-0.0146,-0.0157,0,0,-0.0155,-0.0156,0,0,0,0,0,0,0,0,0.004,0.0038,0.0031,0.0028,0.0024,-0.0021,-0.0035,-0.0059,-0.0053,-0.0026,-0.0055,-0.0055,-0.0102,-0.0108,-0.0121,-0.0161,-0.0164,-0.0155,-0.0157,-0.0159,-0.0159,0,0,0,0,0,0,0,0.0042,0.004,0.003,0.003,0.0026,-0.0008,-0.0012,-0.004,-0.0063,-0.0029,-0.0032,-0.0036,-0.0104,-0.0118,-0.0123,-0.0166,-0.0155,-0.0158,-0.016,-0.0161,-0.022,-0.0219,0,0,0,0,0,0,0.0057,0.0042,0.0032,0.0028,0.0033,-0.0008,-0.0012,-0.0008,-0.0062,-0.007,-0.0036,-0.0038,-0.0112,-0.012,-0.0126,-0.0126,-0.0159,-0.0161,-0.0163,-0.022,-0.022,-0.0219,0,0,0,0,0,0,0.0057,0.0057,0.0034,0.0034,0.0029,-0.0007,-0.0001,-0.0008,-0.0017,-0.0067,-0.0076,-0.0037,-0.0113,-0.0122,-0.0142,-0.013,-0.0163,-0.0166,-0.022,-0.022,-0.0219,-0.0135,0,0,0,0,0,0,0.0058,0.0058,0.0065,0.0036,0.003,0.0031,-0.0001,-0.0009,-0.0019,-0.0023,-0.0071,-0.0079,-0.0114,-0.0137,-0.0145,-0.0135,-0.0168,-0.0221,-0.022,-0.022,-0.0138,-0.0131,-0.0126,0,0,0,0,0,0.0059,0.0079,0.0066,0.0064,0.0042,0.0032,0.0026,-0.0003,-0.0018,-0.0014,-0.0048,-0.0078,-0.014,-0.0139,-0.0149,-0.0139,-0.0221,-0.022,-0.022,-0.0141,-0.0133,-0.0126,0,0,0,0,0,0,0.0087,0.0075,0.006,0.0075,0.0058,0.0025,0.0025,0.0005,-0.0019,-0.0023,-0.0072,-0.0082,-0.0097,-0.013,-0.0128,-0.0156,-0.0186,-0.0187,-0.0123,-0.0116,-0.011,-0.0087,-0.0171,0,0,0,0,0,0.0097,0.011,0.0086,0.0098,0.0092,0.0059,0.0051,0.0033,0.0008,-0.0003,-0.0037,-0.0074,-0.0103,-0.0117,-0.0149,-0.016,-0.0198,-0.0162,-0.0156,-0.0151,-0.0139,-0.0188,-0.0185,-0.0217,-0.0217,-0.0217,0,0,0.011,0.0106,0.0111,0.0104,0.0087,0.0095,0.0053,0.005,0.0058,-0.0008,-0.001,-0.0053,-0.0101,-0.0115,-0.0125,-0.0139,-0.0162,-0.015,-0.0145,-0.0136,-0.0187,-0.0184,-0.0181,-0.0217,-0.0217,-0.0217,0,0,0.0148,0.0139,0.0161,0.0156,0.0143,0.0124,0.0128,0.01,0.0089,0.0078,0.0033,0.0002,-0.0043,-0.0072,-0.0093,-0.0073,-0.0128,-0.0088,-0.0038,-0.0085,-0.0082,-0.008,-0.0121,-0.0124,-0.0085,-0.0084,-0.0084,0,0.0161,0.019,0.0165,0.0186,0.0192,0.0145,0.0171,0.0153,0.0123,0.0118,0.0089,0.0022,-0.002,-0.0035,-0.0031,-0.0058,-0.0094,-0.0058,-0.0075,-0.0075,-0.0074,-0.0117,-0.0121,-0.008,-0.0081,-0.0081,-0.0082,0,0.0215,0.0237,0.0252,0.0265,0.0265,0.0281,0.0258,0.0257,0.023,0.0201,0.0176,0.0112,0.0074,0.005,0.0015,0.0,-0.003,-0.0061,-0.0089,-0.0066,-0.0113,-0.0118,-0.0074,-0.0076,-0.0077,-0.0078,0,0,0.0256,0.0285,0.0293,0.0319,0.0313,0.0326,0.0341,0.0339,0.0355,0.0298,0.0308,0.0237,0.0189,0.0161,0.0107,0.0062,0.0028,0.0008,0.0003,-0.0024,-0.0075,-0.01,-0.0109,-0.001,-0.0011,-0.0011,-0.0107,0,0.0308,0.0374,0.0369,0.0431,0.0463,0.0439,0.0461,0.0451,0.0422,0.0417,0.0338,0.0314,0.0235,0.0218,0.0162,0.0065,0.0016,0.0057,-0.0101,-0.0106,-0.0124,-0.0115,-0.008,-0.0162,-0.0113,-0.0114,-0.0115,0,0.0369,0.0408,0.0481,0.0531,0.0542,0.0569,0.0603,0.0615,0.0584,0.056,0.051,0.0437,0.0371,0.0299,0.0142,0.017,0.006,-0.0026,-0.0033,-0.0087,-0.0141,-0.018,-0.0175,-0.0423,-0.0124,-0.0123,-0.0123,0,0.0429,0.049,0.0558,0.0575,0.0615,0.0651,0.067,0.066,0.069,0.0651,0.0659,0.0544,0.0509,0.0351,0.0167,0.0152,-0.0008,-0.0054,-0.0182,-0.0186,-0.0201,-0.0204,-0.0444,-0.0165,-0.0165,-0.0165,-0.0165,0,0.0495,0.055,0.0598,0.064,0.0728,0.0725,0.0803,0.0802,0.0815,0.0866,0.074,0.0753,0.0519,0.0396,0.0209,0.0004,0.0018,-0.0168,-0.0211,-0.0171,-0.0171,-0.0424,-0.0555,-0.0169,-0.0168,-0.0167,-0.0166,0,0.0552,0.058,0.0667,0.0733,0.0764,0.0828,0.0911,0.0962,0.0955,0.1025,0.1021,0.0912,0.0747,0.0504,0.0252,0.0076,-0.0272,-0.021,-0.0145,-0.0178,-0.0532,-0.0657,-0.0931,-0.1062,-0.0368,-0.0369,-0.037,0,0.0587,0.064,0.0748,0.0809,0.0847,0.0939,0.1007,0.1036,0.1104,0.1135,0.1185,0.1046,0.0987,0.06,0.0246,-0.0089,-0.0319,-0.0281,-0.031,-0.0547,-0.0719,-0.0816,-0.0913,-0.03,-0.03,-0.0301,-0.0301,0,0.0657,0.0696,0.077,0.0902,0.0994,0.1103,0.1209,0.1292,0.1343,0.1409,0.1469,0.1424,0.1054,0.0718,0.024,0.0009,-0.0458,-0.0298,-0.0563,-0.0701,-0.0802,-0.0947,-0.0247,-0.0303,-0.0303,-0.0303,-0.0303,-0.0303,0.0711,0.0775,0.0878,0.1005,0.1114,0.1263,0.1375,0.1499,0.1644,0.1774,0.1706,0.1709,0.1205,0.0557,0.0164,-0.0494,-0.0519,-0.0681,-0.0816,-0.0895,-0.102,-0.0323,-0.0418,-0.0418,-0.0418,-0.0419,-0.0419,0,0.0777,0.0852,0.0972,0.1127,0.126,0.1312,0.1507,0.1639,0.1841,0.1969,0.2032,0.183,0.1186,0.0533,-0.0362,-0.0894,-0.109,-0.1189,-0.1329,-0.1407,-0.0798,-0.0794,-0.0949,-0.0949,-0.0949,-0.0949,-0.0948,-0.0948,0.0812,0.0934,0.0998,0.1227,0.1341,0.1545,0.1672,0.1877,0.2032,0.2225,0.2274,0.2253,0.1796,0.0085,-0.1116,-0.1404,-0.1795,-0.1878,-0.2112,-0.1701,-0.1664,-0.1629,-0.1659,-0.1993,-0.1994,-0.2642,-0.2649,-0.2654]}],[{"header":{"parameterUnit":"m.s-1","parameterCategory":2,"la1":30.2991,"la2":30.254,"lo1":-89.0895,"lo2":-89.0444,"dy":0.0017,"dx":0.0017,"nx":28,"ny":28,"refTime":"2024-02-04T03:00:00:Z","depth":"2","parameterNumber":2,"parameterNumberName":"U-component_of_CURRENTS"},"data":[0,0,0,0,0,0,0,0,0,0,0,0,0,0,0,0,0,0,0,0,0,0,0,0,0,0,0,0,0,0,0,0,0,0,0,0,0,0,0,0,0,0,0,0,0,0,0,0,0,0,0,0,0,0,0,0,0,0,0.3236,0.3236,0,0.3255,0.3255,0.3255,0.3242,0.3242,0.3241,0.3241,0.3226,0.3226,0.3226,0,0,0,0,0,0,0,0,0,0,0,0,0,0.3189,0.3189,0.3236,0.3236,0.3237,0.3255,0.3255,0.3255,0.3242,0.3242,0.3241,0.3241,0.3226,0.3226,0.3226,0,0,0,0,0,0,0,0,0,0,0,0,0,0.3206,0.3189,0.3236,0.3234,0.3234,0.3255,0.3255,0.3255,0.3242,0.3242,0.3241,0.3241,0.3226,0.3226,0.3226,0.3236,0,0,0.3226,0.3226,0,0,0,0,0,0,0,0,0.3205,0.3207,0.3234,0.3234,0.3235,0.3248,0.3233,0.3248,0.3242,0.3237,0.3241,0.324,0.3232,0.3232,0.3233,0.3235,0.3235,0.3226,0.3226,0.3226,0.3226,0,0,0,0,0,0,0,0.3204,0.3207,0.3241,0.3235,0.3235,0.3233,0.3235,0.3235,0.3235,0.3237,0.3237,0.3243,0.3232,0.3233,0.3233,0.3234,0.3226,0.3226,0.3225,0.3225,0.3289,0.329,0,0,0,0,0,0,0.3207,0.3206,0.324,0.3241,0.3221,0.3234,0.3236,0.3242,0.3235,0.3235,0.3243,0.3242,0.3234,0.3233,0.3232,0.3278,0.3226,0.3225,0.3225,0.3287,0.3289,0.3291,0,0,0,0,0,0,0.3206,0.321,0.3239,0.3226,0.323,0.3236,0.3243,0.3243,0.3254,0.3241,0.3239,0.3256,0.3233,0.3232,0.3249,0.3276,0.3225,0.3225,0.3285,0.3288,0.329,0.3348,0,0,0,0,0,0,0.3205,0.321,0.3216,0.3226,0.3231,0.3262,0.3243,0.3244,0.3259,0.3258,0.3251,0.3248,0.3233,0.325,0.3249,0.3275,0.3225,0.3283,0.3286,0.3289,0.3344,0.3352,0.3359,0,0,0,0,0,0.3203,0.3214,0.3216,0.322,0.3239,0.3264,0.3266,0.3266,0.326,0.3273,0.3271,0.3249,0.327,0.3251,0.325,0.3276,0.3281,0.3285,0.3289,0.334,0.3351,0.3359,0,0,0,0,0,0,0.3193,0.3214,0.3216,0.3232,0.3253,0.3263,0.3274,0.3277,0.3285,0.3284,0.3267,0.3266,0.3295,0.3281,0.326,0.3307,0.3274,0.3278,0.3313,0.3323,0.333,0.3354,0.3225,0,0,0,0,0,0.3196,0.3212,0.3232,0.3246,0.3258,0.3269,0.328,0.3285,0.3294,0.3297,0.3293,0.3295,0.3311,0.3311,0.332,0.3339,0.3349,0.3358,0.3366,0.3372,0.3393,0.3428,0.3441,0.3304,0.3304,0.3304,0,0,0.3194,0.3211,0.3217,0.3246,0.3259,0.3286,0.3274,0.3299,0.3327,0.3295,0.3325,0.3324,0.3325,0.3353,0.3364,0.3341,0.3419,0.3377,0.3383,0.3401,0.3434,0.3447,0.3459,0.3306,0.3306,0.3306,0,0,0.3202,0.3217,0.3233,0.3258,0.329,0.3303,0.3316,0.3336,0.3353,0.3376,0.3375,0.3395,0.3395,0.3415,0.3421,0.3479,0.3465,0.3476,0.3526,0.356,0.3571,0.3581,0.3618,0.3631,0.3472,0.3472,0.3472,0,0.32,0.3222,0.3243,0.3271,0.3292,0.3315,0.3341,0.3372,0.3396,0.3413,0.3392,0.3431,0.343,0.3486,0.3509,0.3498,0.3513,0.3486,0.357,0.358,0.359,0.3624,0.3638,0.3475,0.3475,0.3475,0.3474,0,0.3221,0.3244,0.326,0.3304,0.3332,0.3361,0.3406,0.3437,0.3448,0.3467,0.3517,0.3522,0.3543,0.3551,0.3546,0.3622,0.3611,0.358,0.3544,0.3607,0.364,0.3653,0.348,0.3479,0.3478,0.3477,0,0,0.3198,0.326,0.3266,0.3288,0.3351,0.3374,0.3437,0.349,0.3533,0.3554,0.3601,0.364,0.3642,0.3655,0.366,0.3694,0.3776,0.3671,0.3671,0.3705,0.3859,0.3844,0.3856,0.3754,0.3757,0.3759,0.3857,0,0.3206,0.3251,0.3287,0.3337,0.3363,0.3414,0.3473,0.3529,0.3568,0.3623,0.3655,0.3702,0.3685,0.3703,0.3739,0.3776,0.3813,0.3753,0.3797,0.3799,0.3774,0.3872,0.3533,0.3592,0.387,0.3872,0.3873,0,0.3211,0.3242,0.3284,0.3352,0.337,0.341,0.3496,0.355,0.3644,0.3678,0.3731,0.3761,0.3847,0.3805,0.3904,0.3865,0.3877,0.3891,0.3894,0.3872,0.3808,0.3573,0.3605,0.3895,0.3893,0.3892,0.389,0,0.3173,0.3238,0.3267,0.3291,0.3378,0.3411,0.3459,0.3555,0.3617,0.372,0.3775,0.3854,0.3914,0.3945,0.399,0.3953,0.4084,0.4023,0.4021,0.402,0.3739,0.3709,0.4088,0.4088,0.4088,0.4088,0.4087,0,0.316,0.3185,0.3251,0.3269,0.3316,0.3385,0.3452,0.3521,0.3634,0.3713,0.38,0.3885,0.3955,0.4033,0.4035,0.4092,0.412,0.4069,0.4058,0.3752,0.3723,0.3982,0.3969,0.4091,0.409,0.409,0.4089,0,0.3114,0.3158,0.3196,0.3275,0.3298,0.333,0.3438,0.349,0.3618,0.3728,0.3773,0.3941,0.4056,0.4116,0.4191,0.4167,0.4202,0.4201,0.3853,0.3801,0.41,0.4089,0.422,0.4221,0.4221,0.4222,0.4222,0,0.3093,0.3108,0.3179,0.3194,0.3227,0.3285,0.3326,0.3456,0.3525,0.3753,0.3804,0.3984,0.4088,0.4224,0.4187,0.4209,0.4253,0.392,0.3797,0.4146,0.4121,0.4109,0.4097,0.3437,0.3431,0.3426,0.3422,0,0.305,0.3078,0.3105,0.3138,0.3172,0.3212,0.3288,0.3346,0.3512,0.3635,0.38,0.3913,0.4064,0.3954,0.4015,0.3971,0.3892,0.3826,0.4268,0.3479,0.3422,0.3393,0.3404,0.3378,0.3382,0.3385,0.3388,0.339,0.3011,0.3013,0.3046,0.3068,0.3097,0.3118,0.3122,0.321,0.331,0.3422,0.3632,0.367,0.3727,0.3657,0.3558,0.3474,0.3746,0.3555,0.3563,0.3578,0.3494,0.3442,0.3386,0.339,0.3394,0.3397,0.34,0,0.2932,0.295,0.297,0.2978,0.2948,0.3018,0.3073,0.3023,0.3058,0.3184,0.3276,0.3061,0.3038,0.3083,0.2897,0.294,0.2832,0.2816,0.2617,0.2667,0.2711,0.2572,0.2225,0.2221,0.2217,0.2213,0,0,0.2893,0.2866,0.2872,0.2807,0.282,0.2734,0.2737,0.2686,0.2706,0.2661,0.2651,0.2862,0.3009,0.255,0.252,0.2333,0.2464,0.2244,0.3198,0.3014,0.3051,0.3168,0.302,0,0,0,0,0]},{"header":{"parameterUnit":"m.s-1","parameterCategory":2,"la1":30.2991,"la2":30.254,"lo1":-89.0895,"lo2":-89.0444,"dy":0.0017,"dx":0.0017,"nx":28,"ny":28,"refTime":"2024-02-04T03:00:00:Z","depth":"2","parameterNumber":3,"parameterNumberName":"V-component_of_CURRENTS"},"data":[0,0,0,0,0,0,0,0,0,0,0,0,0,0,0,0,0,0,0,0,0,0,0,0,0,0,0,0,0,0,0,0,0,0,0,0,0,0,0,0,0,0,0,0,0,0,0,0,0,0,0,0,0,0,0,0,0,0,0.0126,0.0125,0,0.0066,0.0065,0.0064,0.0018,0.0018,0.0017,0.0017,-0.0068,-0.007,-0.0072,0,0,0,0,0,0,0,0,0,0,0,0,0,0.0136,0.0136,0.0126,0.0125,0.0124,0.0066,0.0065,0.0064,0.0018,0.0018,0.0017,0.0017,-0.0067,-0.0069,-0.0072,0,0,0,0,0,0,0,0,0,0,0,0,0,0.0108,0.0136,0.0126,0.0096,0.0092,0.0066,0.0065,0.0063,0.0018,0.0018,0.0017,0.0017,-0.0066,-0.0069,-0.0072,-0.0081,0,0,-0.0081,-0.0083,0,0,0,0,0,0,0,0,0.011,0.0108,0.0101,0.0098,0.0094,0.005,0.0037,0.0014,0.0018,0.0045,0.0017,0.0017,-0.003,-0.0036,-0.0047,-0.0085,-0.0089,-0.0082,-0.0083,-0.0085,-0.0085,0,0,0,0,0,0,0,0.0112,0.011,0.01,0.01,0.0096,0.0063,0.0059,0.0032,0.001,0.0043,0.0039,0.0035,-0.0032,-0.0044,-0.005,-0.009,-0.0081,-0.0084,-0.0086,-0.0087,-0.0144,-0.0143,0,0,0,0,0,0,0.0126,0.0112,0.0102,0.0099,0.0102,0.0063,0.0059,0.0063,0.001,0.0002,0.0035,0.0033,-0.0039,-0.0046,-0.0053,-0.0053,-0.0085,-0.0087,-0.0089,-0.0144,-0.0144,-0.0143,0,0,0,0,0,0,0.0127,0.0126,0.0105,0.0104,0.0099,0.0064,0.0069,0.0063,0.0053,0.0005,-0.0004,0.0034,-0.004,-0.0049,-0.0068,-0.0057,-0.0089,-0.0091,-0.0144,-0.0144,-0.0143,-0.0062,0,0,0,0,0,0,0.0127,0.0127,0.0134,0.0106,0.01,0.0101,0.007,0.0062,0.0052,0.0048,0.0001,-0.0008,-0.0041,-0.0064,-0.0071,-0.0062,-0.0094,-0.0145,-0.0144,-0.0143,-0.0065,-0.0059,-0.0054,0,0,0,0,0,0.0128,0.0147,0.0135,0.0133,0.0111,0.0102,0.0096,0.0068,0.0052,0.0056,0.0023,-0.0006,-0.0066,-0.0065,-0.0075,-0.0066,-0.0145,-0.0144,-0.0144,-0.0068,-0.006,-0.0054,0,0,0,0,0,0,0.0155,0.0144,0.0129,0.0143,0.0127,0.0095,0.0095,0.0075,0.0052,0.0047,0.0,-0.001,-0.0025,-0.0057,-0.0055,-0.0082,-0.0111,-0.0113,-0.0051,-0.0044,-0.0038,-0.0015,-0.0096,0,0,0,0,0,0.0165,0.0177,0.0154,0.0165,0.016,0.0128,0.0119,0.0102,0.0078,0.0067,0.0033,-0.0003,-0.003,-0.0045,-0.0075,-0.0086,-0.0123,-0.0089,-0.0083,-0.0077,-0.0066,-0.0114,-0.0111,-0.0141,-0.0141,-0.0141,0,0,0.0177,0.0173,0.0178,0.0172,0.0155,0.0162,0.0122,0.0118,0.0126,0.0062,0.0059,0.0017,-0.0029,-0.0042,-0.0052,-0.0066,-0.0089,-0.0077,-0.0072,-0.0063,-0.0113,-0.011,-0.0108,-0.0141,-0.0141,-0.0141,0,0,0.0213,0.0205,0.0227,0.0222,0.0208,0.019,0.0194,0.0167,0.0156,0.0144,0.0101,0.007,0.0027,-0.0001,-0.0022,-0.0003,-0.0057,-0.0017,0.0032,-0.0015,-0.0013,-0.0011,-0.0053,-0.0055,-0.0014,-0.0014,-0.0014,0,0.0226,0.0255,0.023,0.0251,0.0256,0.021,0.0236,0.0219,0.0188,0.0184,0.0155,0.009,0.0049,0.0035,0.0038,0.0012,-0.0024,0.0012,-0.0006,-0.0006,-0.0005,-0.0048,-0.0052,-0.001,-0.001,-0.0011,-0.0011,0,0.0279,0.0301,0.0315,0.0328,0.0328,0.0343,0.0321,0.032,0.0293,0.0264,0.024,0.0177,0.014,0.0116,0.0082,0.0067,0.0038,0.0007,-0.0019,0.0003,-0.0044,-0.005,-0.0004,-0.0006,-0.0007,-0.0008,0,0,0.0318,0.0347,0.0354,0.0381,0.0374,0.0387,0.0402,0.0401,0.0416,0.0359,0.0369,0.03,0.0251,0.0225,0.0172,0.0127,0.0092,0.0074,0.007,0.0042,-0.001,-0.0036,-0.0046,0.0055,0.0054,0.0054,-0.0043,0,0.0368,0.0434,0.043,0.049,0.0522,0.0499,0.052,0.051,0.0481,0.0476,0.0399,0.0375,0.0297,0.028,0.0224,0.0129,0.008,0.0121,-0.0035,-0.0039,-0.0058,-0.0052,-0.0006,-0.0088,-0.0049,-0.005,-0.0051,0,0.0428,0.0467,0.0539,0.0589,0.06,0.0627,0.0659,0.0671,0.0641,0.0617,0.0567,0.0495,0.043,0.0358,0.0203,0.0231,0.0122,0.0037,0.0031,-0.0023,-0.0076,-0.0106,-0.0101,-0.0061,-0.006,-0.0059,-0.0059,0,0.0487,0.0548,0.0615,0.0632,0.0672,0.0707,0.0725,0.0715,0.0745,0.0705,0.0712,0.0599,0.0564,0.0408,0.0226,0.0212,0.0052,0.0008,-0.0119,-0.0123,-0.0128,-0.0131,-0.0102,-0.0102,-0.0102,-0.0101,-0.0101,0,0.0551,0.0605,0.0654,0.0695,0.0782,0.0779,0.0856,0.0854,0.0866,0.0916,0.0791,0.0803,0.0573,0.0451,0.0267,0.0063,0.0077,-0.0106,-0.0148,-0.0099,-0.0098,-0.011,-0.011,-0.0105,-0.0104,-0.0104,-0.0103,0,0.0607,0.0635,0.0721,0.0787,0.0816,0.088,0.0961,0.1011,0.1004,0.1072,0.1067,0.0958,0.0794,0.0554,0.0306,0.0133,-0.0073,-0.015,-0.0075,-0.0107,-0.0228,-0.0223,-0.0304,-0.0306,-0.0307,-0.0308,-0.0309,0,0.0641,0.0694,0.0799,0.086,0.0897,0.0988,0.1056,0.1084,0.115,0.1177,0.1226,0.1087,0.1024,0.0641,0.0297,-0.0032,-0.0081,-0.0212,-0.0237,-0.0215,-0.0249,-0.0241,-0.0234,-0.0216,-0.0216,-0.0216,-0.0216,0,0.0709,0.0748,0.0821,0.0951,0.1041,0.115,0.1254,0.1335,0.1384,0.1444,0.1498,0.1448,0.1086,0.0756,0.0287,0.0066,-0.0161,-0.0226,-0.0222,-0.0168,-0.0139,-0.017,-0.0164,-0.0217,-0.0217,-0.0217,-0.0217,-0.0217,0.0761,0.0825,0.0927,0.1051,0.116,0.1306,0.1417,0.1529,0.1667,0.1762,0.1703,0.1627,0.1249,0.0647,0.0251,-0.018,-0.016,-0.0304,-0.03,-0.0298,-0.0267,-0.0242,-0.0333,-0.0333,-0.0334,-0.0334,-0.0334,0,0.0827,0.09,0.1018,0.1172,0.1303,0.1355,0.1547,0.1658,0.1839,0.1888,0.1922,0.1565,0.1179,0.072,0.0095,-0.0263,-0.0287,-0.0387,-0.0328,-0.0323,-0.032,-0.0289,-0.0362,-0.0364,-0.0365,-0.0366,0,0,0.0862,0.0982,0.1045,0.127,0.1382,0.1579,0.1703,0.1863,0.1949,0.2015,0.1953,0.183,0.1299,0.0842,0.0353,-0.001,-0.0086,-0.0084,-0.0016,0.0119,0.0126,-0.0222,-0.0163,0,0,0,0,0]}],[{"header":{"parameterUnit":"m.s-1","parameterCategory":2,"la1":30.2991,"la2":30.254,"lo1":-89.0895,"lo2":-89.0444,"dy":0.0017,"dx":0.0017,"nx":28,"ny":28,"refTime":"2024-02-04T03:00:00:Z","depth":"4","parameterNumber":2,"parameterNumberName":"U-component_of_CURRENTS"},"data":[0,0,0,0,0,0,0,0,0,0,0,0,0,0,0,0,0,0,0,0,0,0,0,0,0,0,0,0,0,0,0,0,0,0,0,0,0,0,0,0,0,0,0,0,0,0,0,0,0,0,0,0,0,0,0,0,0,0,0.2079,0.208,0,0.2153,0.2154,0.2155,0.222,0.2221,0.2222,0.2223,0.2315,0.2316,0.2318,0,0,0,0,0,0,0,0,0,0,0,0,0,0.1983,0.1985,0.2079,0.208,0.2081,0.2153,0.2154,0.2155,0.222,0.2221,0.2222,0.2223,0.2314,0.2316,0.2318,0,0,0,0,0,0,0,0,0,0,0,0,0,0.2036,0.1985,0.2079,0.2123,0.2128,0.2153,0.2154,0.2155,0.222,0.2221,0.2223,0.2224,0.2313,0.2316,0.2318,0.2305,0,0,0.2325,0.2326,0,0,0,0,0,0,0,0,0.2033,0.2039,0.2116,0.212,0.2126,0.2181,0.2154,0.2207,0.222,0.2183,0.2223,0.2225,0.2271,0.2277,0.2286,0.231,0.2314,0.2326,0.2327,0.2328,0.2329,0,0,0,0,0,0,0,0.2029,0.2037,0.2107,0.2117,0.2123,0.2137,0.2146,0.2164,0.2218,0.2186,0.2192,0.2203,0.2274,0.2283,0.2288,0.2315,0.2325,0.2328,0.2329,0.233,0.2473,0.2475,0,0,0,0,0,0,0.2023,0.2033,0.2104,0.2109,0.2084,0.2138,0.2147,0.216,0.2217,0.2228,0.2201,0.2205,0.2278,0.2285,0.2292,0.2406,0.2328,0.233,0.2332,0.2471,0.2474,0.2476,0,0,0,0,0,0,0.2021,0.2029,0.2101,0.2074,0.2085,0.2138,0.2152,0.2161,0.2218,0.2229,0.2239,0.2254,0.228,0.2288,0.2355,0.2405,0.2331,0.2333,0.2468,0.2472,0.2475,0.2553,0,0,0,0,0,0,0.2018,0.2027,0.2056,0.2074,0.2086,0.2146,0.2151,0.2161,0.222,0.2227,0.2276,0.2283,0.2281,0.2352,0.2357,0.2407,0.2335,0.2465,0.247,0.2474,0.2547,0.2559,0.2568,0,0,0,0,0,0.2014,0.2038,0.2056,0.2066,0.2116,0.2148,0.2156,0.2196,0.2222,0.2252,0.2293,0.2284,0.2384,0.2355,0.2362,0.2413,0.2463,0.2468,0.2473,0.2543,0.2557,0.2568,0,0,0,0,0,0,0.2012,0.2048,0.2068,0.2104,0.214,0.2161,0.2199,0.2223,0.2278,0.2301,0.2311,0.2321,0.24,0.2396,0.2364,0.2469,0.2423,0.243,0.2474,0.2487,0.2498,0.251,0.2337,0,0,0,0,0,0.2023,0.2058,0.2087,0.2123,0.2145,0.2181,0.2209,0.2237,0.2276,0.2304,0.2339,0.2379,0.2418,0.2446,0.2475,0.2528,0.2529,0.2567,0.2578,0.2587,0.2603,0.2639,0.2654,0.2494,0.2494,0.2494,0,0,0.2034,0.206,0.2081,0.2127,0.2161,0.2199,0.2203,0.226,0.2308,0.2303,0.2396,0.2421,0.2442,0.2507,0.2541,0.2516,0.2635,0.2593,0.2601,0.2612,0.2647,0.2662,0.2676,0.2497,0.2497,0.2496,0,0,0.2055,0.2097,0.2129,0.2163,0.2222,0.2244,0.2271,0.2321,0.2369,0.2437,0.2459,0.2518,0.257,0.26,0.2617,0.2704,0.2692,0.272,0.2782,0.2818,0.2831,0.2843,0.2869,0.2882,0.2722,0.2722,0.2723,0,0.2071,0.2109,0.2145,0.2183,0.222,0.227,0.2311,0.2363,0.2434,0.2475,0.2482,0.2588,0.2612,0.269,0.273,0.2729,0.2744,0.2729,0.2831,0.2842,0.2853,0.2877,0.289,0.2727,0.2726,0.2726,0.2725,0,0.2098,0.215,0.2176,0.2241,0.2285,0.2334,0.2397,0.2463,0.252,0.256,0.2664,0.2699,0.2759,0.2781,0.2787,0.2884,0.287,0.284,0.2794,0.2874,0.2894,0.2907,0.2733,0.2732,0.273,0.2729,0,0,0.2076,0.2175,0.219,0.2231,0.2323,0.2355,0.2452,0.2533,0.2604,0.268,0.276,0.2845,0.2874,0.2898,0.2919,0.2961,0.3055,0.2948,0.2947,0.2967,0.3141,0.2945,0.2939,0.3046,0.3049,0.3051,0.3126,0,0.2091,0.2163,0.2216,0.2301,0.2341,0.2422,0.2505,0.2593,0.267,0.2762,0.2826,0.2914,0.2916,0.2964,0.3009,0.3052,0.3093,0.3038,0.3068,0.3069,0.2878,0.2948,0.3059,0.3136,0.3139,0.3141,0.3142,0,0.2091,0.2143,0.2223,0.2332,0.2361,0.243,0.2561,0.264,0.2774,0.2839,0.2931,0.2985,0.3096,0.3068,0.3178,0.3148,0.3163,0.3176,0.3178,0.2976,0.2895,0.304,0.3165,0.3163,0.3161,0.316,0.3158,0,0.2033,0.2144,0.2211,0.2249,0.2381,0.2452,0.2533,0.2669,0.2749,0.2903,0.2975,0.3085,0.3168,0.3209,0.3258,0.3236,0.3348,0.3303,0.3136,0.3122,0.3241,0.3228,0.3366,0.3366,0.3366,0.3366,0.3366,0,0.2001,0.2061,0.2201,0.2237,0.2332,0.2437,0.2554,0.2654,0.2802,0.2889,0.3021,0.3094,0.3214,0.3286,0.3295,0.3256,0.3377,0.3162,0.3131,0.3273,0.3263,0.325,0.3236,0.3369,0.3368,0.3368,0.3367,0,0.1921,0.2014,0.2098,0.2252,0.2308,0.2379,0.2557,0.2627,0.2796,0.2915,0.2975,0.3146,0.3233,0.3312,0.3387,0.3291,0.3276,0.3228,0.3396,0.3371,0.3018,0.3008,0.3041,0.3035,0.3029,0.3025,0.3021,0,0.188,0.1919,0.2089,0.2142,0.2222,0.2346,0.2424,0.2604,0.2675,0.2909,0.2943,0.311,0.3195,0.314,0.3237,0.3232,0.3191,0.316,0.3071,0.302,0.2988,0.2985,0.2981,0.3013,0.3011,0.301,0.3008,0,0.1799,0.1884,0.1952,0.206,0.2155,0.2237,0.2366,0.2406,0.2602,0.2783,0.2836,0.2878,0.2971,0.3008,0.3036,0.3022,0.3163,0.3103,0.3113,0.3029,0.2986,0.2958,0.2961,0.299,0.2993,0.2994,0.2995,0,0.1746,0.1769,0.1872,0.1948,0.2053,0.209,0.2179,0.2257,0.2349,0.2601,0.2608,0.2776,0.2934,0.2901,0.2921,0.2901,0.2848,0.2736,0.2763,0.2785,0.2665,0.2571,0.243,0,0,0,0,0,0.1671,0.1679,0.1745,0.1808,0.1904,0.1965,0.2117,0.2209,0.2403,0.237,0.2481,0.2544,0.2583,0.2669,0.2595,0.2819,0.2868,0.2721,0.2755,0.2888,0.2909,0.2791,0,0,0,0,0,0,0.1618,0.1674,0.1692,0.1673,0.1689,0.177,0.186,0.1996,0.1988,0.2194,0.2226,0.2378,0.2454,0.2588,0.2539,0.2566,0.2531,0.2829,0.2822,0.2876,0.2895,0.2912,0.2798,0,0,0,0,0]},{"header":{"parameterUnit":"m.s-1","parameterCategory":2,"la1":30.2991,"la2":30.254,"lo1":-89.0895,"lo2":-89.0444,"dy":0.0017,"dx":0.0017,"nx":28,"ny":28,"refTime":"2024-02-04T03:00:00:Z","depth":"4","parameterNumber":3,"parameterNumberName":"V-component_of_CURRENTS"},"data":[0,0,0,0,0,0,0,0,0,0,0,0,0,0,0,0,0,0,0,0,0,0,0,0,0,0,0,0,0,0,0,0,0,0,0,0,0,0,0,0,0,0,0,0,0,0,0,0,0,0,0,0,0,0,0,0,0,0,0.0212,0.0212,0,0.0173,0.0173,0.0172,0.0144,0.0144,0.0144,0.0144,0.0082,0.0081,0.0079,0,0,0,0,0,0,0,0,0,0,0,0,0,0.0219,0.0219,0.0212,0.0212,0.0211,0.0173,0.0173,0.0172,0.0144,0.0144,0.0144,0.0144,0.0083,0.0081,0.0079,0,0,0,0,0,0,0,0,0,0,0,0,0,0.0201,0.0219,0.0212,0.0194,0.0192,0.0174,0.0173,0.0172,0.0144,0.0144,0.0144,0.0144,0.0083,0.0081,0.0079,0.0069,0,0,0.0072,0.0071,0,0,0,0,0,0,0,0,0.0202,0.02,0.0197,0.0195,0.0193,0.0164,0.0153,0.0137,0.0144,0.0161,0.0144,0.0143,0.0108,0.0104,0.0096,0.0067,0.0064,0.0072,0.007,0.0069,0.0069,0,0,0,0,0,0,0,0.0203,0.0202,0.0196,0.0196,0.0194,0.0172,0.017,0.0149,0.0135,0.016,0.0158,0.0155,0.0107,0.0098,0.0094,0.0063,0.0072,0.007,0.0068,0.0068,0.0019,0.0019,0,0,0,0,0,0,0.0212,0.0203,0.0197,0.0195,0.0198,0.0173,0.017,0.0173,0.0136,0.0131,0.0155,0.0154,0.0102,0.0097,0.0092,0.009,0.0069,0.0067,0.0066,0.0019,0.0019,0.0019,0,0,0,0,0,0,0.0213,0.0212,0.0199,0.0198,0.0195,0.0173,0.0176,0.0172,0.0168,0.0133,0.0127,0.0156,0.0102,0.0095,0.008,0.0087,0.0066,0.0064,0.0019,0.0019,0.0019,0.0078,0,0,0,0,0,0,0.0213,0.0213,0.022,0.0199,0.0196,0.0196,0.0177,0.0172,0.0167,0.0165,0.0132,0.0125,0.0101,0.0084,0.0078,0.0083,0.0063,0.0019,0.0019,0.0019,0.0076,0.008,0.0084,0,0,0,0,0,0.0214,0.0227,0.022,0.022,0.0205,0.0197,0.0193,0.0175,0.0167,0.017,0.0147,0.0127,0.008,0.0083,0.0076,0.008,0.0019,0.0019,0.0019,0.0075,0.008,0.0084,0,0,0,0,0,0,0.0233,0.0225,0.0217,0.0227,0.0216,0.0193,0.0195,0.0182,0.0166,0.0165,0.013,0.0123,0.0111,0.0087,0.009,0.0065,0.0045,0.0044,0.0089,0.0094,0.0097,0.0118,0.0061,0,0,0,0,0,0.0241,0.0251,0.0234,0.0243,0.0239,0.0218,0.0213,0.0201,0.0184,0.0177,0.0153,0.0127,0.0105,0.0094,0.007,0.006,0.0029,0.0056,0.006,0.0064,0.0074,0.0031,0.0032,0.0019,0.0019,0.0019,0,0,0.025,0.0248,0.0253,0.0248,0.0237,0.0242,0.0215,0.0213,0.0219,0.0173,0.0173,0.0141,0.0105,0.0093,0.0085,0.0075,0.005,0.0064,0.0067,0.0076,0.0031,0.0032,0.0033,0.002,0.002,0.0019,0,0,0.0277,0.0273,0.0289,0.0285,0.0277,0.0264,0.0267,0.0248,0.0241,0.0233,0.0202,0.0177,0.0144,0.0121,0.0104,0.0115,0.0072,0.0102,0.0139,0.0097,0.0098,0.0098,0.0059,0.0056,0.0104,0.0105,0.0105,0,0.0287,0.0309,0.0291,0.0306,0.0312,0.0279,0.0298,0.0286,0.0264,0.0262,0.0242,0.0191,0.0159,0.0144,0.0146,0.0125,0.0093,0.0128,0.0103,0.0103,0.0102,0.0062,0.0057,0.0107,0.0107,0.0107,0.0107,0,0.0324,0.0342,0.0353,0.0363,0.0364,0.0376,0.0359,0.036,0.0343,0.0321,0.0301,0.0252,0.0224,0.0203,0.0178,0.0161,0.0137,0.0114,0.0095,0.0107,0.0063,0.0058,0.0112,0.0111,0.011,0.0109,0,0,0.0351,0.0374,0.0381,0.0404,0.0399,0.041,0.0421,0.042,0.0433,0.039,0.0399,0.0342,0.0306,0.0286,0.0244,0.0203,0.0166,0.0162,0.0159,0.0131,0.0072,0.0061,0.0053,0.0136,0.0136,0.0135,0.0043,0,0.0387,0.0436,0.0435,0.0484,0.0508,0.0494,0.0511,0.0504,0.0482,0.048,0.0418,0.0402,0.034,0.0329,0.0279,0.0199,0.0154,0.0194,0.0058,0.0055,0.005,0.0047,0.0133,0.0038,0.0037,0.0036,0.0035,0,0.0429,0.0459,0.0516,0.0559,0.0569,0.0593,0.0622,0.0632,0.0609,0.0591,0.0552,0.0497,0.0441,0.0387,0.025,0.0277,0.0184,0.0112,0.0106,0.0074,0.0033,0.0022,0.0024,0.0025,0.0025,0.0026,0.0027,0,0.0469,0.052,0.0574,0.0588,0.0623,0.0657,0.0676,0.0669,0.0694,0.0666,0.0671,0.0577,0.0549,0.0417,0.0263,0.0255,0.0107,0.0076,-0.0024,-0.0027,-0.0015,-0.0015,-0.0023,-0.0023,-0.0022,-0.0022,-0.0022,0,0.0511,0.0557,0.0606,0.0638,0.0713,0.0716,0.0782,0.0784,0.0796,0.0828,0.0737,0.0734,0.0555,0.0446,0.0292,0.012,0.0124,-0.0015,-0.005,0.0011,0.0015,-0.002,-0.0018,-0.0026,-0.0025,-0.0024,-0.0024,0,0.0544,0.0573,0.0645,0.0707,0.0738,0.0793,0.0871,0.0909,0.0909,0.0954,0.0953,0.0856,0.0708,0.0516,0.0303,0.0173,-0.0001,-0.0065,0.0023,-0.0007,-0.0116,-0.011,-0.0184,-0.0185,-0.0186,-0.0187,-0.0188,0,0.0562,0.0604,0.0704,0.0757,0.0794,0.0878,0.0936,0.0969,0.1013,0.1025,0.1051,0.0932,0.0839,0.0539,0.0322,0.0026,-0.0022,-0.0113,-0.0126,-0.0104,-0.0132,-0.0124,-0.0118,-0.0189,-0.0189,-0.019,-0.019,0,0.0597,0.0639,0.0698,0.0813,0.0895,0.0987,0.1074,0.1118,0.1156,0.116,0.113,0.0971,0.0807,0.0551,0.0322,0.0107,-0.0055,-0.0124,-0.0124,-0.0137,-0.0112,-0.0136,-0.0128,-0.0193,-0.0193,-0.0192,-0.0192,0,0.0627,0.0674,0.0762,0.0862,0.0968,0.1068,0.1111,0.1166,0.1212,0.1218,0.1204,0.102,0.0912,0.0593,0.0382,0.0169,0.0104,0.0027,0.0018,0.0019,0.0097,0.016,0.0136,0,0,0,0,0,0.0649,0.0707,0.0801,0.0914,0.102,0.1092,0.1192,0.1222,0.1263,0.1253,0.1233,0.1076,0.0767,0.0632,0.0417,0.0343,0.0056,0.0081,-0.004,-0.0211,-0.0208,-0.0153,0,0,0,0,0,0,0.0663,0.0752,0.0801,0.0943,0.1028,0.1154,0.1224,0.1252,0.1245,0.1247,0.1086,0.1015,0.0711,0.0893,0.0412,0.0348,0.0238,-0.0061,-0.0066,-0.0214,-0.021,-0.0207,-0.015,0,0,0,0,0]}]]